Location: Maiden_LMO
(35.5760°N, 81.2120°W)
Time: 13:32:03
(UTC-04:00)

ADEOS II - Visible Passes

Search period start: 30 March 2015 00:00
Search period end: 09 April 2015 00:00
Orbit: 800 x 802 km, 98.3° (Epoch: 29 March)

Date Brightness Start Highest point End Pass type
(mag) Time Alt. Az. Time Alt. Az. Time Alt. Az.
30 Mar 5.1 05:40:59 10° ENE 05:43:18 13° E 05:45:56 10° ESE visible
01 Apr 3.6 06:26:18 10° NNE 06:31:12 40° E 06:36:09 10° SSE visible
02 Apr 4.7 06:00:52 10° NE 06:04:51 22° E 06:08:58 10° SE visible
03 Apr 5.2 05:36:36 10° ENE 05:38:20 12° E 05:40:26 10° ESE visible
05 Apr 3.8 06:21:29 10° NNE 06:26:17 36° E 06:31:08 10° SSE visible
06 Apr 4.8 05:56:09 10° NE 05:59:54 20° E 06:03:49 10° SE visible
07 Apr 5.4 05:32:32 10° ENE 05:33:22 11° E 05:34:36 10° ESE visible
